Weather History for Hickory, NC

Change the Weather History Date:

Thursday, May 16, 2013

  Actual Average Record
Temperature  
Mean Temperature 72 °F -  
Max Temperature 81 °F 76 °F 90 °F (1962)
Min Temperature 64 °F 54 °F 39 °F (1973)
Cooling Degree Days 8    
Growing Degree Days 22 (Base 50)    
Moisture  
Dew Point 55 °F    
Average Humidity 55    
Maximum Humidity 78    
Minimum Humidity 39    
Precipitation  
Precipitation 0.00 in - - ()
Sea Level Pressure  
Sea Level Pressure 29.94 in    
Wind  
Wind Speed 5 mph (WSW)    
Max Wind Speed 10 mph    
Max Gust Speed -    
Visibility 10 miles    
Events      
Averages and records for this station are not official NWS values.
T = Trace of Precipitation, MM = Missing Value Source: NWS Daily Summary

Daily Weather History Graph

Daily Weather History Graph

Search for Another Location

Airport:

Trip Planner

Search our weather history database for the weather conditions in past years. The results will help you decide how hot, cold, wet, or windy it might be!

Date:

Astronomy

May. 16, 2013 Rise Set
Actual Time 6:19 AM EDT 8:24 PM EDT
Civil Twilight 5:50 AM EDT 8:53 PM EDT
Nautical Twilight 5:16 AM EDT 9:28 PM EDT
Astronomical Twilight 4:38 AM EDT 10:05 PM EDT
Moon 11:47 AM EDT (5/16) 12:47 AM EDT (5/16)
Length of Visible Light 15h 02m
Length of Day
14h 05m
Waxing Crescent, 35% of the Moon is Illuminated
May 16
Waxing Crescent
May 18
First Quarter
May 25
Full
May 31
Last Quarter
Jun 8
New

Hourly Weather History & Observations

Time (EDT) Temp. Heat Index Dew Point Humidity Pressure Visibility Wind Dir Wind Speed Gust Speed Precip Events Conditions
12:53 AM 70.0 °F - 57.9 °F 65% 29.92 in 10.0 mi West 4.6 mph - N/A   Clear
1:53 AM 66.9 °F - 57.0 °F 70% 29.91 in 10.0 mi West 3.5 mph - N/A   Clear
2:53 AM 66.9 °F - 54.0 °F 63% 29.89 in 10.0 mi NW 5.8 mph - N/A   Clear
3:53 AM 71.1 °F - 50.0 °F 47% 29.88 in 10.0 mi West 6.9 mph - N/A   Clear
4:53 AM 66.9 °F - 48.9 °F 52% 29.90 in 10.0 mi West 5.8 mph - N/A   Clear
5:53 AM 64.9 °F - 48.0 °F 54% 29.91 in 10.0 mi WSW 5.8 mph - N/A   Clear
6:53 AM 66.9 °F - 48.0 °F 51% 29.93 in 10.0 mi West 6.9 mph - N/A   Clear
7:53 AM 68.0 °F - 51.1 °F 55% 29.95 in 10.0 mi West 5.8 mph - N/A   Clear
8:53 AM 72.0 °F - 53.1 °F 51% 29.96 in 10.0 mi West 5.8 mph - N/A   Clear
9:53 AM 77.0 °F - 55.0 °F 47% 29.97 in 10.0 mi West 6.9 mph - N/A   Clear
10:53 AM 78.1 °F - 54.0 °F 43% 29.98 in 10.0 mi West 8.1 mph - N/A   Clear
11:53 AM 79.0 °F - 52.0 °F 39% 29.98 in 10.0 mi West 10.4 mph - N/A   Clear
12:53 PM 80.1 °F 79.9 °F 53.1 °F 39% 29.96 in 10.0 mi West 9.2 mph - N/A   Clear
1:53 PM 79.0 °F - 53.1 °F 40% 29.96 in 10.0 mi WSW 8.1 mph - N/A   Clear
2:53 PM 81.0 °F 81.0 °F 57.0 °F 44% 29.95 in 10.0 mi SW 10.4 mph - N/A   Clear
3:53 PM 80.1 °F 80.2 °F 55.9 °F 43% 29.93 in 10.0 mi South 9.2 mph - N/A   Clear
4:53 PM 77.0 °F - 57.0 °F 50% 29.92 in 10.0 mi SSW 5.8 mph - N/A   Clear
6:53 PM 73.9 °F - 57.9 °F 57% 29.92 in 10.0 mi SW 4.6 mph - N/A   Clear
7:53 PM 73.9 °F - 60.1 °F 62% 29.94 in 10.0 mi Calm Calm - N/A   Clear
8:53 PM 70.0 °F - 60.1 °F 71% 29.96 in 10.0 mi Calm Calm - N/A   Clear
9:53 PM 66.9 °F - 59.0 °F 76% 29.97 in 10.0 mi Calm Calm - N/A   Clear
10:53 PM 66.9 °F - 59.0 °F 76% 29.99 in 10.0 mi SSW 3.5 mph - N/A   Clear
11:53 PM 66.0 °F - 59.0 °F 78% 29.98 in 10.0 mi Calm Calm - N/A   Clear